FW7617 Weather Reports


time (UTC)temp
C
wind
direction
speed
KPH
gust
KPH
rain 1hr
cm
rain 24hr
cm
rain mn
cm
humidity
%
barometer
mb
20260504194536 22 235 8.0 17.7 0.00 0.00 0.00 30 1009.5
20260504193516 22 240 9.7 17.7 0.00 0.00 0.00 30 1009.5
20260504192536 22 256 8.0 12.9 0.00 0.00 0.00 31 1009.6
20260504191516 22 254 8.0 12.9 0.00 0.00 0.00 30 1009.8
20260504190517 22 249 6.4 14.5 0.00 0.00 0.00 31 1009.8
20260504185537 22 241 6.4 12.9 0.00 0.00 0.00 30 1010.0
20260504184517 22 256 8.0 20.9 0.00 0.00 0.00 32 1010.1
20260504183517 22 257 8.0 16.1 0.00 0.00 0.00 33 1010.3
20260504182517 21 242 8.0 14.5 0.00 0.00 0.00 32 1010.4
20260504181517 22 220 9.7 20.9 0.00 0.00 0.00 30 1010.6
20260504180517 22 261 6.4 16.1 0.00 0.00 0.00 33 1010.8
20260504175518 21 271 4.8 12.9 0.00 0.00 0.00 34 1010.8
20260504174518 21 250 8.0 14.5 0.00 0.00 0.00 32 1010.9
20260504173558 21 256 9.7 19.3 0.00 0.00 0.00 32 1011.0
20260504172535 21 261 6.4 16.1 0.00 0.00 0.00 33 1011.2
20260504171515 21 251 9.7 16.1 0.00 0.00 0.00 33 1011.3
20260504170535 21 230 6.4 14.5 0.00 0.00 0.00 34 1011.4
20260504150537 18 253 9.7 25.7 0.00 0.00 0.00 34 1012.7
20260504140536 17 257 8.0 16.1 0.00 0.00 0.00 41 1012.9
20260504130516 15 267 3.2 11.3 0.00 0.00 0.00 56 1013.7
20260504110515 6 68 3.2 4.8 0.00 0.00 0.00 71 1014.2
20260504100517 4 79 1.6 3.2 0.00 0.00 0.00 77 1014.0
20260504081518 5 6 1.6 3.2 0.00 0.03 0.00 72 1013.7
20260504080515 5 9 1.6 3.2 0.00 0.03 0.00 72 1013.7
20260504050516 7 20 3.2 6.4 0.00 0.03 0.00 62 1013.3
20260504045536 7 32 3.2 6.4 0.00 0.03 0.00 62 1013.3
20260504044536 7 24 3.2 6.4 0.00 0.03 0.00 62 1013.2
20260504043516 7 35 1.6 6.4 0.00 0.03 0.00 64 1013.2
20260504042516 7 28 3.2 8.0 0.00 0.03 0.00 64 1013.2
20260504041537 7 14 3.2 6.4 0.00 0.03 0.00 65 1013.0
20260504040537 7 16 4.8 6.4 0.00 0.03 0.00 61 1013.0
20260504035517 7 14 1.6 6.4 0.00 0.03 0.03 60 1012.8
20260504034517 7 21 3.2 4.8 0.00 0.03 0.03 62 1012.8
20260504033537 7 24 3.2 6.4 0.00 0.03 0.03 59 1012.7
20260504032517 7 53 1.6 4.8 0.00 0.03 0.03 58 1012.7
20260504031518 7 13 1.6 4.8 0.00 0.03 0.03 59 1012.7
20260504030515 7 46 1.6 3.2 0.00 0.03 0.03 60 1012.6
20260504025518 7 59 1.6 4.8 0.00 0.03 0.03 59 1012.7
20260504024618 7 67 1.6 3.2 0.00 0.03 0.03 58 1012.6
20260504023515 8 41 1.6 3.2 0.00 0.03 0.03 56 1012.6
20260504022535 8 79 1.6 4.8 0.00 0.03 0.03 55 1012.6
20260504021516 8 44 1.6 4.8 0.00 0.03 0.03 55 1012.6
20260504020516 8 40 1.6 3.2 0.00 0.03 0.03 53 1012.6
20260504015516 8 6 1.6 3.2 0.00 0.03 0.03 53 1012.6
20260504014516 8 329 0.0 3.2 0.00 0.03 0.03 52 1012.5
20260504013516 8 3 1.6 3.2 0.00 0.03 0.03 52 1012.4
20260504012516 9 1 1.6 4.8 0.00 0.03 0.03 51 1012.3
20260504011556 9 4 1.6 3.2 0.00 0.03 0.03 50 1012.1
20260504010517 10 30 1.6 3.2 0.00 0.03 0.03 50 1012.0
20260504005517 10 26 1.6 4.8 0.00 0.03 0.03 48 1012.0
20260504004517 10 62 1.6 4.8 0.00 0.03 0.03 49 1011.9
20260504003517 11 58 1.6 4.8 0.00 0.03 0.03 43 1011.7
20260504002537 12 5 1.6 3.2 0.00 0.03 0.03 40 1011.5
20260504001518 12 356 1.6 3.2 0.00 0.03 0.03 39 1011.3
20260504000518 13 357 1.6 3.2 0.00 0.03 0.03 37 1011.2
20260503235515 13 7 1.6 3.2 0.00 0.03 0.03 36 1011.1
20260503234515 14 349 1.6 4.8 0.00 0.03 0.03 35 1011.1
20260503233515 15 284 1.6 6.4 0.00 0.03 0.03 33 1011.0
20260503232515 15 272 3.2 8.0 0.00 0.03 0.03 32 1010.8
20260503231516 15 265 3.2 6.4 0.00 0.03 0.03 31 1010.8
20260503230515 15 248 4.8 12.9 0.00 0.03 0.03 29 1010.8
20260503225516 15 256 3.2 9.7 0.00 0.03 0.03 29 1010.6
20260503224516 15 264 3.2 8.0 0.00 0.03 0.03 31 1010.7
20260503223536 15 258 3.2 9.7 0.00 0.03 0.03 29 1010.7
20260503222517 16 256 4.8 11.3 0.00 0.03 0.03 29 1010.6
20260503221516 16 253 4.8 8.0 0.00 0.03 0.03 29 1010.6
20260503220537 16 264 4.8 8.0 0.00 0.03 0.03 30 1010.6
20260503215517 16 249 6.4 14.5 0.00 0.03 0.03 28 1010.6
20260503214517 16 247 6.4 14.5 0.00 0.03 0.03 29 1010.6
20260503213517 16 273 3.2 8.0 0.00 0.03 0.03 30 1010.6
20260503212535 16 306 3.2 6.4 0.00 0.03 0.03 36 1010.6
20260503211516 16 269 4.8 11.3 0.00 0.03 0.03 33 1010.6
20260503210516 16 266 6.4 20.9 0.00 0.03 0.03 32 1010.6
20260503205516 16 269 6.4 12.9 0.00 0.03 0.03 35 1010.6
20260503204515 15 284 3.2 12.9 0.00 0.03 0.03 33 1010.7
20260503203515 15 255 6.4 17.7 0.00 0.03 0.03 34 1010.7
20260503202515 16 278 4.8 11.3 0.00 0.03 0.03 33 1010.7
20260503201516 16 251 4.8 12.9 0.00 0.03 0.03 31 1010.7
20260503200516 16 259 4.8 12.9 0.00 0.03 0.03 33 1010.9
20260503195516 16 257 4.8 11.3 0.00 0.03 0.03 34 1010.9